Content
SEND FEEDBACK

Daily
Averages
Monthly
Summary
United States of America

NORTHFIELD, VERMONT


Home > North America > United States > Vermont
Elevation: 1407 feet     Latitude: 44 01N     Longitude: 072 37W

WEATHER
 
SELECT A DAY
Number of Records: 247,271;   Date Range: 1/1/95 - 9/18/14
 
SHARE

PRINT THIS DATA

[ ← Previous Day ]
WEATHER ALMANAC - JANUARY 3, 2013
[ Next Day → ]
[ °C ]   °F
Weather ElementAverageHighLow
Temperature-6.6 °F6.8 °F (3:51 pm)-16.6 °F (7:43 am)
Dewpoint-11.5 °F-2.9 °F (11:51 pm)-22 °F (7:51 am)
Humidity80.6 %100 % (8:08 am)55 % (1:51 pm)
Barometer30.15 in30.27 in (1:51 am)29.98 in (3:51 pm)
Wind Speed0.3 mph3.5 mph (9:51 am)
Weather ElementAverage
Visibility7.8 mi
Wind DirectionN (4.8 °)

Weather ElementTotal
Precipitation---
Heating Degree Days69.9 (Base 65)
Averaged from 27 records on January 3, 2013
WEATHER CONDITIONS BREAKOUT
WIND DIRECTION BREAKOUT
WEATHER BY HOUR - JANUARY 3, 2013
[ °C ]   °F
Local TimeTemperatureDewpointHumidityBarometerVisibilityWind DirectionWind SpeedGust SpeedPrecipitationEventsConditions
1:51 AM-13.0 °F-16.1 °F86 %30.27 in10.0 miCalmClear
2:51 AM-11.9 °F-14.1 °F90 %30.27 in10.0 miCalmClear
3:51 AM-11.9 °F-15.0 °F86 %30.26 in10.0 miCalmClear
4:51 AM-15.0 °F-18.0 °F86 %30.25 in10.0 miCalmClear
5:51 AM-14.1 °F-18.9 °F79 %30.25 in10.0 miCalmClear
6:51 AM-16.1 °F-20.0 °F82 %30.27 in7.0 miCalmClear
7:43 AM-16.6 °F-20.2 °F84 %30.14 in3.0 miCalmPartly Cloudy
7:51 AM-16.1 °F-22.0 °F74 %30.27 in3.0 miCalmHaze
7:57 AM-16.6 °F-20.2 °F84 %30.14 in2.0 miCalmPartly Cloudy
8:08 AM-16.6 °F-16.6 °F100 %30.14 in5.0 miCalmClear
8:38 AM-14.8 °F-14.8 °F100 %30.13 in2.5 miCalmPartly Cloudy
8:51 AM-14.1 °F-14.1 °F100 %30.25 in4.0 miCalmClear
9:51 AM-11.0 °F-14.1 °F86 %30.25 in5.0 miENE (70°)3.5 mph0.00 inSnowLight Snow
10:51 AM-6.0 °F-9.9 °F83 %30.22 in9.0 miCalm0.00 inClear
11:51 AM-2.0 °F-9.0 °F72 %30.19 in10.0 miENE (60°)3.5 mphClear
12:51 PM3.0 °F-8.0 °F60 %30.16 in10.0 miCalm0.00 inClear
1:51 PM6.1 °F-7.1 °F55 %30.12 in10.0 miCalmOvercast
2:51 PM6.1 °F-6.0 °F58 %30.11 in10.0 miCalmOvercast
3:51 PM6.8 °F-5.8 °F56 %29.98 in10.0 miCalmMostly Cloudy
4:51 PM3.0 °F-4.0 °F73 %30.09 in9.0 miCalmMostly Cloudy
5:51 PM0.0 °F-5.1 °F79 %30.09 in10.0 miCalmOvercast
6:51 PM0.0 °F-5.1 °F79 %30.09 in10.0 miCalmOvercast
7:51 PM0.0 °F-5.1 °F79 %30.07 in9.0 miCalmMostly Cloudy
8:51 PM-2.9 °F-6.0 °F87 %30.06 in9.0 miCalmOvercast
9:51 PM-2.9 °F-7.1 °F82 %30.05 in8.0 miCalmMostly Cloudy
10:51 PM-2.9 °F-6.0 °F87 %30.02 in8.0 miCalmOvercast
11:51 PM0.0 °F-2.9 °F88 %29.99 in8.0 miCalmOvercast
Hourly data recorded from KMPV, located miles away from Northfield, Vermont







STORIES FROM OUR PARTNERS